TIANMU-1 11

Last updated on Tue Sep 22 2026 00:02:54 GMT+0000 (Coordinated Universal Time)

1 58645U 23205A 26264.61779123 .00003379 00000+0 12696-3 0 9994 2 58645 97.3434 284.7078 0009463 33.9138 326.2705 15.27822521152249
UTC large
Height (km)
Speed (km/s)
/
Latitude / Longitude
Inclination (degrees)
Orbital Period (minutes)
Azimuth
Elevation
Range (km)
Doppler Factor

Next 0 passes for location: London (51.5072 / 0.1276)

No passes found over London.
TIANMU-1 11